FW1480 Weather Reports


Display with metric or nautical units.
time (UTC)temp
F
wind
direction
speed
MPH
gust
MPH
rain 1hr
in
rain 24hr
in
rain mn
in
humidity
%
barometer
mb
20260902030506 0 0.0 0.0 0.00 0.00 0.00 1020.8
20260902025908 0 0.0 0.0 0.00 0.00 0.00 1020.8
20260902025410 0 0.0 0.0 0.00 0.00 0.00 1020.8
20260902024901 0 0.0 0.0 0.00 0.00 0.00 1020.6
20260902023901 0 0.0 0.0 0.00 0.00 0.00 1020.1
20260902022259 0 0.0 0.0 0.00 0.00 0.00 1020.2
20260902021755 0 0.0 0.0 0.00 0.00 0.00 1020.3
20260902021201 0 0.0 0.0 0.00 0.00 0.00 1020.2
20260902020605 0 0.0 0.0 0.00 0.00 0.00 1020.3
20260902015053 0 0.0 0.0 0.00 0.00 0.00 1020.2
20260902014505 0 0.0 0.0 0.00 0.00 0.00 1020.0
20260902014002 0 0.0 0.0 0.00 0.00 0.00 1020.0
20260902013453 0 0.0 0.0 0.00 0.00 0.00 1020.0
20260902012402 0 0.0 0.0 0.00 0.00 0.00 1019.9
20260902011903 0 0.0 0.0 0.00 0.00 0.00 1019.6
20260902011311 0 0.0 0.0 0.00 0.00 0.00 1019.6
20260902010759 0 0.0 0.0 0.00 0.00 0.00 1019.5
20260902010258 0 0.0 0.0 0.00 0.00 0.00 1019.5
20260902005755 0 0.0 0.0 0.00 0.00 0.00 1019.5
20260902005210 0 0.0 0.0 0.00 0.00 0.00 1019.5
20260902004709 0 0.0 0.0 0.00 0.00 0.00 1019.4
20260902004203 0 0.0 0.0 0.00 0.00 0.00 1019.5
20260902003657 0 0.0 0.0 0.00 0.00 0.00 1019.6
20260902003101 0 135 0.0 3.0 0.00 0.00 0.00 1019.5
20260902002553 63 135 0.0 3.0 0.00 0.00 0.00 95 1019.3
20260902001013 63 202 0.0 3.0 0.00 0.00 0.00 95 1018.9
20260902000507 63 227 1.0 4.0 0.00 0.00 0.00 95 1018.8
20260902000001 64 347 0.0 4.0 0.00 0.00 0.00 95 1018.9
20260901235456 64 127 1.0 3.0 0.00 0.00 0.00 95 1018.7
20260901234444 64 90 0.0 4.0 0.00 0.00 0.00 94 1018.8
20260901233938 64 88 0.0 4.0 0.00 0.00 0.00 94 1018.8
20260901232925 65 256 1.0 4.0 0.00 0.00 0.00 94 1018.7
20260901232419 65 293 1.0 6.0 0.00 0.00 0.00 94 1018.8
20260901231407 66 348 1.0 5.0 0.00 0.00 0.00 93 1018.8
20260901230901 66 264 0.0 4.0 0.00 0.00 0.00 93 1018.6
20260901230356 66 326 1.0 4.0 0.00 0.00 0.00 93 1018.6
20260901225344 67 65 1.0 5.0 0.00 0.00 0.00 92 1018.4
20260901224837 68 288 1.0 4.0 0.00 0.00 0.00 92 1018.1
20260901223825 70 305 1.0 4.0 0.00 0.00 0.00 91 1018.0
20260901222307 73 43 1.0 7.0 0.00 0.00 0.00 89 1017.7
20260901221255 74 181 0.0 0.0 0.00 0.00 0.00 91 1017.5
20260901220749 74 181 0.0 1.0 0.00 0.00 0.00 91 1017.5
20260901220244 74 235 0.0 1.0 0.00 0.00 0.00 91 1017.5
20260901215231 75 233 0.0 1.0 0.00 0.00 0.00 90 1017.5
20260901214220 75 193 0.0 0.0 0.00 0.00 0.00 90 1017.3
20260901213713 76 193 0.0 1.0 0.00 0.00 0.00 90 1017.2
20260901213207 76 193 0.0 1.0 0.00 0.00 0.00 89 1017.2
20260901212702 76 193 0.0 0.0 0.00 0.00 0.00 89 1017.2
20260901212156 76 193 0.0 0.0 0.00 0.00 0.00 89 1017.3
20260901211650 76 193 0.0 0.0 0.00 0.00 0.00 89 1017.2
20260901211143 76 193 0.0 0.0 0.00 0.00 0.00 89 1017.2
20260901210637 76 193 0.0 0.0 0.00 0.00 0.00 89 1017.2
20260901205625 76 193 0.0 0.0 0.00 0.00 0.00 89 1017.1
20260901205121 76 193 0.0 0.0 0.00 0.00 0.00 88 1017.3
20260901204617 76 193 0.0 0.0 0.00 0.00 0.00 89 1017.1
20260901204115 76 193 0.0 0.0 0.00 0.00 0.00 88 1017.1
20260901203614 76 193 0.0 0.0 0.00 0.00 0.00 88 1017.0
20260901203114 76 193 0.0 0.0 0.00 0.00 0.00 88 1017.1
20260901202613 77 193 0.0 0.0 0.00 0.00 0.00 87 1017.1
20260901202111 77 193 0.0 0.0 0.00 0.00 0.00 87 1017.1
20260901201610 77 193 0.0 0.0 0.00 0.00 0.00 87 1017.2
20260901200609 77 193 0.0 0.0 0.00 0.00 0.00 84 1017.2
20260901200107 77 193 0.0 0.0 0.00 0.00 0.00 85 1017.1
20260901195105 77 188 0.0 0.0 0.00 0.00 0.00 86 1017.1
20260901194605 77 184 0.0 2.0 0.00 0.00 0.00 86 1017.0
20260901194105 76 182 0.0 2.0 0.00 0.00 0.00 88 1016.9
20260901193604 76 141 0.0 0.0 0.00 0.00 0.00 87 1016.9
20260901193103 76 158 0.0 0.0 0.00 0.00 0.00 88 1017.0
20260901192101 76 156 0.0 0.0 0.00 0.00 0.00 88 1017.1
20260901191601 76 173 0.0 0.0 0.00 0.00 0.00 89 1017.1
20260901191101 76 173 0.0 0.0 0.00 0.00 0.00 89 1017.0
20260901190603 75 156 0.0 0.0 0.00 0.00 0.00 91 1017.0
20260901185601 75 169 0.0 0.0 0.00 0.00 0.00 94 1017.1
20260901184602 74 169 0.0 0.0 0.00 0.00 0.00 95 1017.1
20260901184102 74 169 0.0 0.0 0.00 0.00 0.00 95 1017.2
20260901183602 74 169 0.0 0.0 0.00 0.00 0.00 95 1017.1
20260901183100 74 169 0.0 0.0 0.00 0.00 0.00 96 1017.2
20260901182601 74 169 0.0 0.0 0.00 0.00 0.00 96 1017.1
20260901182058 74 169 0.0 0.0 0.00 0.00 0.00 97 1017.1
20260901181600 74 169 0.0 0.0 0.00 0.00 0.00 98 1017.1
20260901180558 73 169 0.0 0.0 0.00 0.00 0.00 98 1017.2
20260901180059 73 169 0.0 0.0 0.00 0.00 0.00 98 1017.1
20260901175556 72 169 0.0 0.0 0.00 0.00 0.00 98 1017.3
20260901175057 72 169 0.0 0.0 0.00 0.00 0.00 98 1017.2
20260901174558 72 169 0.0 0.0 0.00 0.00 0.00 97 1017.4
20260901173055 72 169 0.0 0.0 0.00 0.00 0.00 97 1017.1
20260901172558 71 169 0.0 0.0 0.00 0.00 0.00 97 1017.2
20260901172057 72 169 0.0 0.0 0.00 0.00 0.00 98 1017.2
20260901171555 0 0.0 0.0 0.00 0.00 0.00 1017.2
20260901171001 0 0.0 0.0 0.00 0.00 0.00 1017.1
20260901170501 0 0.0 0.0 0.00 0.00 0.00 1016.9
20260901165909 0 0.0 0.0 0.00 0.00 0.00 1017.2
20260901165406 0 0.0 0.0 0.00 0.00 0.00 1017.1
20260901164903 0 0.0 0.0 0.00 0.00 0.00 1017.2
20260901164401 0 0.0 0.0 0.00 0.00 0.00 1017.3
20260901163858 0 0.0 0.0 0.00 0.00 0.00 1017.4
20260901163308 0 0.0 0.0 0.00 0.00 0.00 1017.4
20260901162805 0 0.0 0.0 0.00 0.00 0.00 1017.5
20260901162257 0 0.0 0.0 0.00 0.00 0.00 1017.8
20260901161756 0 0.0 0.0 0.00 0.00 0.00 1017.9
20260901161201 0 0.0 0.0 0.00 0.00 0.00 1018.2
20260901160610 0 0.0 0.0 0.00 0.00 0.00 1018.2
20260901160101 0 0.0 0.0 0.00 0.00 0.00 1018.3
20260901155558 0 0.0 0.0 0.00 0.00 0.00 1018.3
20260901155057 0 0.0 0.0 0.00 0.00 0.00 1018.5
20260901154509 0 0.0 0.0 0.00 0.00 0.00 1018.7
20260901154006 0 0.0 0.0 0.00 0.00 0.00 1018.8
20260901153459 0 0.0 0.0 0.00 0.00 0.00 1018.7
20260901152957 0 0.0 0.0 0.00 0.00 0.00 1018.6
20260901151809 0 0.0 0.0 0.00 0.00 0.00 1018.1
20260901151304 0 0.0 0.0 0.00 0.00 0.00 1018.1
20260901150756 0 0.0 0.0 0.00 0.00 0.00 1018.1
20260901150255 0 0.0 0.0 0.00 0.00 0.00 1018.1
20260901145700 0 0.0 0.0 0.00 0.00 0.00 1018.0
20260901145156 0 0.0 0.0 0.00 0.00 0.00 1018.0
20260901143058 0 0.0 0.0 0.00 0.00 0.00 1018.3
20260901142508 0 0.0 0.0 0.00 0.00 0.00 1018.4
20260901142000 0 0.0 0.0 0.00 0.00 0.00 1018.5
20260901141400 0 0.0 0.0 0.00 0.00 0.00 1018.6
20260901140356 0 0.0 0.0 0.00 0.00 0.00 1018.6
20260901135803 0 0.0 0.0 0.00 0.00 0.00 1018.6
20260901134159 0 0.0 0.0 0.00 0.00 0.00 1018.5
20260901133625 0 0.0 0.0 0.00 0.00 0.00 1018.5
20260901133100 0 0.0 0.0 0.00 0.00 0.00 1018.6
20260901132558 0 0.0 0.0 0.00 0.00 0.00 1018.7
20260901132058 0 0.0 0.0 0.00 0.00 0.00 1018.5
20260901131557 0 0.0 0.0 0.00 0.00 0.00 1018.5
20260901130505 0 0.0 0.0 0.00 0.00 0.00 1019.0
20260901125957 0 0.0 0.0 0.00 0.00 0.00 1019.2
20260901125454 0 0.0 0.0 0.00 0.00 0.00 1019.0
20260901124905 0 0.0 0.0 0.00 0.00 0.00 1018.7
20260901123855 0 0.0 0.0 0.00 0.00 0.00 1018.7
20260901123352 0 0.0 0.0 0.00 0.00 0.00 1018.6
20260901122807 0 0.0 0.0 0.00 0.00 0.00 1018.4
20260901122301 0 0.0 0.0 0.00 0.00 0.00 1018.5
20260901121756 0 0.0 0.0 0.00 0.00 0.00 1018.5
20260901121257 0 0.0 0.0 0.00 0.00 0.00 1018.6
20260901120756 0 0.0 0.0 0.00 0.00 0.00 1018.4
20260901120207 0 0.0 0.0 0.00 0.00 0.00 1018.5
20260901115158 0 0.0 0.0 0.00 0.00 0.00 1018.5
20260901114651 0 0.0 0.0 0.00 0.00 0.00 1018.6
20260901114059 0 0.0 0.0 0.00 0.00 0.00 1018.6
20260901113507 0 0.0 0.0 0.00 0.00 0.00 1018.6
20260901112459 0 0.0 0.0 0.00 0.00 0.00 1018.6
20260901111959 0 0.0 0.0 0.00 0.00 0.00 1018.7
20260901111457 0 0.0 0.0 0.00 0.00 0.00 1018.6
20260901110402 0 0.0 0.0 0.00 0.00 0.00 1018.5
20260901105859 0 0.0 0.0 0.00 0.00 0.00 1018.5
20260901105358 0 0.0 0.0 0.00 0.00 0.00 1018.5
20260901104856 0 0.0 0.0 0.00 0.00 0.00 1018.5
20260901103801 0 0.0 0.0 0.00 0.00 0.00 1018.7
20260901102754 0 0.0 0.0 0.00 0.00 0.00 1018.6
20260901102250 0 0.0 0.0 0.00 0.00 0.00 1018.5
20260901101659 0 0.0 0.0 0.00 0.00 0.00 1018.5
20260901101159 0 0.0 0.0 0.00 0.00 0.00 1018.4
20260901100656 0 0.0 0.0 0.00 0.00 0.00 1018.3
20260901095655 0 0.0 0.0 0.00 0.00 0.00 1018.1
20260901094555 0 0.0 0.0 0.00 0.00 0.00 1018.3
20260901094001 0 0.0 0.0 0.00 0.00 0.00 1018.4
20260901093500 0 0.0 0.0 0.00 0.00 0.00 1018.4
20260901092905 0 0.0 0.0 0.00 0.00 0.00 1018.5
20260901092404 0 0.0 0.0 0.00 0.00 0.00 1018.5
20260901091852 0 0.0 0.0 0.00 0.00 0.00 1018.5
20260901091306 0 0.0 0.0 0.00 0.00 0.00 1018.5
20260901090802 0 0.0 0.0 0.00 0.00 0.00 1018.6
20260901085756 0 0.0 0.0 0.00 0.00 0.00 1018.6
20260901085201 0 0.0 0.0 0.00 0.00 0.00 1018.6
20260901084659 0 0.0 0.0 0.00 0.00 0.00 1018.5
20260901084156 0 0.0 0.0 0.00 0.00 0.00 1018.7
20260901083656 0 0.0 0.0 0.00 0.00 0.00 1018.7
20260901083054 0 0.0 0.0 0.00 0.00 0.00 1018.9
20260901082459 0 0.0 0.0 0.00 0.00 0.00 1018.9
20260901081959 0 0.0 0.0 0.00 0.00 0.00 1019.0
20260901081405 0 0.0 0.0 0.00 0.00 0.00 1019.1
20260901080905 0 0.0 0.0 0.00 0.00 0.00 1019.0
20260901075301 0 0.0 0.0 0.00 0.00 0.00 1019.2
20260901074752 0 0.0 0.0 0.00 0.00 0.00 1019.2
20260901074158 0 0.0 0.0 0.00 0.00 0.00 1019.1
20260901073058 0 0.0 0.0 0.00 0.00 0.00 1019.3
20260901072006 0 0.0 0.0 0.00 0.00 0.00 1019.0
20260901071458 0 0.0 0.0 0.00 0.00 0.00 1019.3
20260901070901 0 0.0 0.0 0.00 0.00 0.00 1019.2
20260901070400 0 0.0 0.0 0.00 0.00 0.00 1019.3
20260901065804 0 0.0 0.0 0.00 0.00 0.00 1019.2
20260901065306 0 0.0 0.0 0.00 0.00 0.00 1019.3
20260901064254 0 0.0 0.0 0.00 0.00 0.00 1019.3
20260901063707 0 0.0 0.0 0.00 0.00 0.00 1019.4
20260901063208 0 0.0 0.0 0.00 0.00 0.00 1019.4
20260901062650 0 0.0 0.0 0.00 0.00 0.00 1019.5
20260901061558 0 0.0 0.0 0.00 0.00 0.00 1019.6
20260901061056 0 0.0 0.0 0.00 0.00 0.00 1019.7
20260901060505 0 0.0 0.0 0.00 0.00 0.00 1019.8
20260901055958 0 0.0 0.0 0.00 0.00 0.00 1019.8
20260901055453 0 0.0 0.0 0.00 0.00 0.00 1019.8
20260901054402 0 0.0 0.0 0.00 0.00 0.00 1019.9
20260901053857 0 0.0 0.0 0.00 0.00 0.00 1019.9
20260901053357 0 0.0 0.0 0.00 0.00 0.00 1019.9
20260901052357 0 0.0 0.0 0.00 0.00 0.00 1020.0
20260901051807 0 0.0 0.0 0.00 0.00 0.00 1020.0
20260901051304 0 0.0 0.0 0.00 0.00 0.00 1020.0
20260901050800 0 0.0 0.0 0.00 0.00 0.00 1020.1
20260901050301 0 0.0 0.0 0.00 0.00 0.00 1020.0
20260901045300 0 0.0 0.0 0.00 0.00 0.00 1020.3
20260901044747 0 0.0 0.0 0.00 0.00 0.00 1020.3
20260901043656 0 0.0 0.0 0.00 0.00 0.00 1020.3
20260901043103 0 0.0 0.0 0.00 0.00 0.00 1020.3
20260901042600 0 0.0 0.0 0.00 0.00 0.00 1020.3
20260901042056 0 0.0 0.0 0.00 0.00 0.00 1020.3
20260901041500 0 0.0 0.0 0.00 0.00 0.00 1020.3
20260901040957 0 0.0 0.0 0.00 0.00 0.00 1020.4
20260901035904 0 0.0 0.0 0.00 0.00 0.00 1020.4
20260901034800 0 0.0 0.0 0.00 0.00 0.00 1020.4
20260901034259 0 0.0 0.0 0.00 0.00 0.00 1020.2
20260901033204 0 0.0 0.0 0.00 0.00 0.00 1020.3
20260901032702 0 0.0 0.0 0.00 0.00 0.00 1020.3
20260901032200 0 0.0 0.0 0.00 0.00 0.00 1020.4
20260901031606 0 0.0 0.0 0.00 0.00 0.00 1020.7
20260901031102 0 0.0 0.0 0.00 0.00 0.00 1020.7